Flag for Fiji Weather past 2 weeks in Lautoka, Fiji

Now
73 °F

Partly cloudy.


Feels Like: 76 °F
Forecast: 72 / 80 °F
Wind: 6 mph from Southeast

Location: Nandi

Current Time: Jul 28, 2014 at 7:37:33 PM

Latest Report: Jul 28, 2014 at 7:00 PM


Visibility: N/A

Pressure: 29.98 "Hg

Humidity: 69%

Dew point: 63 °F

Location of LautokaLocation

Historic Weather in Lautoka — Graph

°F

Lautoka temperature yesterday

Maximum temperature yesterday: 77 °F (at 1:00 PM)
Minimum temperature yesterday: 55 °F (at 4:00 AM)
Average temperature yesterday: 67 °F

Past Weeks' High & Low Weather Summary

 TemperatureHumidityPressure
High82 °F (Jul 19, 12:00 PM)100% (Jul 15, 1:00 AM)30.09 "Hg (Jul 15, 1:00 AM)
Low55 °F (Jul 27, 4:00 AM)42% (Jul 25, 2:00 PM)29.77 "Hg (Jul 22, 4:00 PM)
Average70 °F76%29.92 "Hg
* Reported Jul 13 6:00 PM — Jul 28 6:00 PM, Lautoka, Weather by CustomWeather, © 2014

Note: Actual official high and low records may vary slightly from our data, if they occured in-between our weather recording intervals... More about our weather records

Advertising

Lautoka weather history for previous 24 hours

 ConditionsComfort  
Time TempWeatherWind HumidityBarometerVisibility
6:00 PM
Jul 28
75 °FPassing clouds.9 mph65%29.95 "HgN/A
5:00 PM77 °FScattered clouds.9 mph57%29.95 "HgN/A
4:00 PM77 °FScattered clouds.12 mph57%29.92 "HgN/A
3:00 PM79 °FPartly sunny.13 mph58%29.92 "HgN/A
2:00 PM77 °FPartly sunny.15 mph65%29.95 "HgN/A
1:00 PM77 °FBroken clouds.9 mph83%29.95 "Hg25 mi
12:00 PM82 °FPartly sunny.5 mph42%29.98 "HgN/A
11:00 AM81 °FScattered clouds.5 mph45%30.01 "HgN/A
10:00 AM77 °FScattered clouds.5 mph51%30.04 "HgN/A
9:00 AM68 °FPassing clouds.5 mph73%30.04 "HgN/A
8:00 AM64 °FScattered clouds.6 mph78%30.01 "HgN/A
7:00 AM61 °FScattered clouds.5 mph88%30.01 "HgN/A
6:00 AM63 °FPassing clouds.7 mph77%29.98 "HgN/A
5:00 AM61 °FPassing clouds.6 mph88%29.98 "HgN/A
4:00 AM63 °FPassing clouds.3 mph83%29.95 "HgN/A
3:00 AM64 °FPassing clouds.6 mph78%29.95 "HgN/A
2:00 AM63 °FPassing clouds.8 mph83%29.98 "HgN/A
1:00 AM63 °FPassing clouds.12 mph83%30.01 "HgN/A
12:00 AM66 °FPassing clouds.10 mph68%30.01 "HgN/A
11:00 PM
Jul 27
64 °FPassing clouds.13 mph73%30.01 "HgN/A
10:00 PM66 °FPassing clouds.8 mph68%30.01 "HgN/A
9:00 PM66 °FPassing clouds.7 mph73%30.01 "HgN/A
8:00 PM68 °FPassing clouds.7 mph69%29.98 "HgN/A
7:00 PM72 °FPassing clouds.10 mph61%29.98 "HgN/A
Weather by CustomWeather, © 2014

See weather overviewHow to use our weather pages